Regional Weather Roundup
Issued by NWS

Home | Current Version | Previous Version | Graphics & Text | Print | Product List | Glossary On
Versions: 1 2 3 4 5 6 7 8 9 10 11 12 13 14 15 16 17 18 19 20 21 22 23 24 25 26 27 28 29 30 31 32 33 34 35 36 37 38 39 40 41 42 43 44 45 46 47 48 49 50
000
ASUS45 KPSR 240210
RWRAZ

ARIZONA HOURLY REGIONAL WEATHER ROUNDUP
NATIONAL WEATHER SERVICE PHOENIX AZ
700 PM MST TUE MAY 23 2017

NOTE: FAIR INDICATES FEW OR NO CLOUDS BELOW 12,000 FEET WITH NO
SIGNIFICANT WEATHER AND/OR OBSTRUCTIONS TO VISIBILITY.

AZZ001>003-036-240300-
NORTHWEST ARIZONA

CITY           SKY/WX    TMP DP  RH WIND       PRES   REMARKS
BULLHEAD CITY  CLEAR    104  25   6 NW5       29.71F
KINGMAN        CLEAR     91  25   9 N8        29.95S
$$

AZZ004>008-015-016-018-240300-
NORTH CENTRAL ARIZONA

CITY           SKY/WX    TMP DP  RH WIND       PRES   REMARKS
GRAND CANYON   CLEAR     72  19  13 N5        30.20S
WILLIAMS       CLEAR     72  23  16 N7        30.20S
PRESCOTT       CLEAR     83  18   9 N7        30.05F
FLAGSTAFF      CLEAR     70  25  18 N3        30.20R
PAYSON         CLEAR     82  19   9 NW9       30.08R
PAGE           CLEAR     81  34  18 NE3       30.00F
$$

AZZ009>014-017-240300-
NORTHEAST ARIZONA

CITY           SKY/WX    TMP DP  RH WIND       PRES   REMARKS
WINSLOW        CLEAR     80  21  11 N9        30.07S
SAINT JOHNS    CLEAR     76  23  14 NW21G26   30.08R
WINDOW ROCK    CLEAR     67  22  18 NW12      30.18R
SHOW LOW       CLEAR     70  25  18 N8        30.18R
$$

AZZ540-542>544-546-548-240300-
GREATER PHOENIX AREA

CITY           SKY/WX    TMP DP  RH WIND       PRES   REMARKS
PHOENIX        MOCLDY   101  22   6 W10       29.72F
BUCKEYE        CLEAR     95  37  13 S6        29.73S
GLENDALE       PTCLDY   102  19   5 S9        29.74F
LUKE AFB       CLEAR    101  19   5 S13       29.72S
DEER VALLEY    CLEAR     98  20   6 SW12      29.75S
SCOTTSDALE     CLEAR    100  23   6 SW8       29.77S
MESA-GATEWAY   PTCLDY    99  21   6 W6        29.76F
CHANDLER       CLEAR    100  19   5 SW8       29.75S
$$

AZZ539-553-240300-
SOUTHWEST MARICOPA COUNTY AND PINAL COUNTY

CITY           SKY/WX    TMP DP  RH WIND       PRES   REMARKS
CASA GRANDE    CLEAR     99  22   6 NW8       29.78S
GILA BEND      PTCLDY   103   8   3 CALM      29.71S
$$

AZZ503-504-507>509-240300-
SOUTHEAST ARIZONA

CITY           SKY/WX    TMP DP  RH WIND       PRES   REMARKS
TUCSON         CLEAR     96  20   6 N12       29.86S
DAVIS-MONTHAN  CLEAR     94  18   6 N13       29.86S
RYAN FIELD     CLEAR     97  23   7 N10G18    29.85R
NOGALES        CLEAR     89  17   7 W9        29.95R
SIERRA VISTA   CLEAR     85  14   7 NW12      30.03R
DOUGLAS        CLEAR     86  14   7 MISG      29.95S
SAFFORD        CLEAR     92  15   6 NW17      29.84S
$$

AZZ532-240300-
SOUTHWEST ARIZONA

CITY           SKY/WX    TMP DP  RH WIND       PRES   REMARKS
YUMA           CLEAR    104  32   8 SW7       29.69F
$$

CAZ041-043-047-048-061-525>527-560>570-240300-
SOUTHERN CALIFORNIA

CITY           SKY/WX    TMP DP  RH WIND       PRES   REMARKS
DOWNTOWN L.A.  CLEAR     67  57  70 W3        29.87F
L.A. AIRPORT   PTCLDY    62  58  86 W14       29.88F
SAN DIEGO      PTCLDY    68  59  73 NW6       29.90F
BURBANK        CLEAR     77  56  48 SE12      29.86S
ONTARIO        PTCLDY    84  43  23 W13       29.87S
RIVERSIDE      CLEAR     84  51  31 W8        29.87S
PALM SPRINGS   CLEAR    103  42  12 NW15G25   29.74S
EL CENTRO NAS  PTCLDY   104  32   8 W13       29.70S
IMPERIAL       CLEAR    105  38  10 W5        29.68S
BLYTHE         CLEAR    104  30   7 E6        29.70F
NEEDLES        CLEAR    106  17   4 E8        29.73F
$$

NVZ020-UTZ003-240300-
SOUTHERN NEVADA-UTAH

CITY           SKY/WX    TMP DP  RH WIND       PRES   REMARKS
LAS VEGAS      PTCLDY    98  19   6 E10       29.81F
SALT LAKE CITY PTCLDY    78  39  24 N8        30.02F
$$

NMZ009-TXZ055-240300-
NEW MEXICO-WEST TEXAS

CITY           SKY/WX    TMP DP  RH WIND       PRES   REMARKS
ALBUQUERQUE    PTCLDY    73  14  10 NW20G30   30.04R
EL PASO        PTCLDY    76  39  26 E13       29.94R
$$


........................KEY........................
SKY/WX - SKY CONDITION/WEATHER
TMP    - TEMPERATURE IN FAHRENHEIT
DP     - DEW POINT IN FAHRENHEIT
RH     - RELATIVE HUMIDITY IN PERCENT
WIND   - DIRECTION AND SPEED IN MILES PER HOUR (MPH)
VRB    - VARIABLE WIND DIRECTION
PRES   - MEAN SEA LEVEL PRESSURE IN INCHES OF MERCURY
         F - FALLING PRESSURE   R - RISING PRESSURE
         S - STEADY PRESSURE
VSB    - VISIBILITY IN MILES
HX     - HEAT INDEX IN FAHRENHEIT
WCI    - WIND CHILL INDEX IN FAHRENHEIT
TC     - TEMPERATURE IN CELSIUS WHICH IS ALSO KNOWN AS
         TEMPERATURE IN CENTIGRADE
AFB    - AIR FORCE BASE
         LUKE AFB IS LUKE AIR FORCE BASE
         DAVIS-MONTHAN IS DAVIS-MONTHAN AIR FORCE BASE
NAS    - NAVAL AIR STATION
         EL CENTRO NAS IS EL CENTRO NAVAL AIR STATION
N/A    - NOT AVAILABLE




USA.gov is the U.S. government's official web portal to all federal, state and local government web resources and services.